Date,TemperatureHighF,TemperatureAvgF,TemperatureLowF,DewpointHighF,DewpointAvgF,DewpointLowF,HumidityHigh,HumidityAvg,HumidityLow,PressureMaxIn,PressureMinIn,WindSpeedMaxMPH,WindSpeedAvgMPH,GustSpeedMaxMPH,PrecipitationSumIn
2013-8-1,73.3,34.7,62.9,63.0,-19.4,-99.9,95,38,61,26.43,26.38,13,-496,21,0.00
2013-8-2,74.6,37.1,60.2,64.0,-15.4,-99.9,90,37,56,26.50,26.41,9,-466,12,0.00
2013-8-3,75.4,38.2,62.4,62.0,-15.9,-99.9,96,36,56,26.50,26.44,10,-461,14,0.00
2013-8-4,71.5,37.0,65.2,61.0,-16.1,-99.9,86,35,48,26.50,26.41,21,-458,28,0.00
2013-8-5,73.9,34.7,54.5,64.0,-18.8,-99.9,96,38,65,26.51,26.44,8,-492,12,0.00
2013-8-6,71.6,33.5,62.1,66.0,-21.7,-99.9,96,40,75,26.50,26.41,7,-510,9,0.00
2013-8-7,67.4,29.0,64.7,66.0,-27.9,-99.9,96,41,92,26.52,26.46,7,-561,10,0.14
2013-8-8,73.9,36.9,64.0,67.0,-12.3,-99.9,98,46,75,26.52,26.47,5,-471,9,0.01
2013-8-9,79.8,38.6,65.0,69.0,-12.6,-99.9,96,41,63,26.54,26.47,8,-472,14,0.00
2013-8-10,77.7,30.2,66.9,68.0,-31.7,-99.9,94,32,66,26.58,26.52,11,-588,22,0.32
2013-8-11,79.0,36.5,63.4,67.0,-17.3,-99.9,97,39,64,26.59,26.52,9,-498,15,0.00
2013-8-12,76.5,38.9,66.8,68.0,-11.1,-99.9,92,42,68,26.54,26.46,10,-461,18,0.05
2013-8-13,74.0,34.4,65.6,66.0,-19.2,-99.9,96,40,68,26.44,26.32,13,-503,24,0.01
2013-8-14,65.6,32.1,59.2,55.0,-21.9,-99.9,86,36,59,26.50,26.35,17,-485,21,0.00
2013-8-15,55.6,22.4,53.2,51.0,-38.4,-99.9,87,34,81,26.56,26.48,6,-587,13,0.00
2013-8-16,66.4,31.3,51.6,56.0,-21.3,-99.9,97,39,64,26.57,26.49,8,-482,12,0.00
2013-8-17,60.5,26.5,53.8,59.0,-29.9,-99.9,98,39,75,26.59,26.53,7,-546,10,0.00
2013-8-18,70.8,31.2,59.0,64.0,-22.6,-99.9,99,42,66,26.62,26.53,7,-520,9,0.00
2013-8-19,66.1,30.8,61.0,64.0,-22.2,-99.9,98,44,88,26.61,26.53,8,-520,8,0.06
2013-8-20,73.2,33.9,57.0,65.0,-19.4,-99.9,98,41,72,26.62,26.55,6,-504,10,0.00
2013-8-21,71.6,33.0,62.1,65.0,-20.9,-99.9,96,41,75,26.66,26.56,5,-515,8,0.00
2013-8-22,74.7,37.2,65.0,64.0,-17.0,-99.9,91,35,58,26.61,26.50,12,-480,16,0.00
2013-8-23,72.8,35.8,63.2,64.0,-16.3,-99.9,97,40,69,26.53,26.46,14,-481,20,0.00
2013-8-24,69.8,34.3,58.0,58.0,-20.4,-99.9,96,34,54,26.72,26.55,8,-483,15,0.00
2013-8-25,69.9,20.7,46.4,57.0,-50.1,-99.9,98,23,60,26.77,26.71,5,-675,9,0.00
2013-8-26,71.8,34.2,48.6,60.0,-19.4,-99.9,98,36,59,26.73,26.58,14,-480,19,0.00
2013-8-27,72.7,35.1,63.1,64.0,-17.3,-99.9,91,40,67,26.59,26.50,16,-484,22,0.00
2013-8-28,76.1,36.9,66.8,66.0,-16.3,-99.9,89,38,65,26.51,26.42,14,-486,18,0.00
2013-8-29,78.1,37.3,69.1,65.0,-17.5,-99.9,85,35,55,26.48,26.39,22,-490,22,0.00
2013-8-30,73.0,31.9,64.0,67.0,-22.5,-99.9,98,42,81,26.51,26.43,3,-530,8,0.00
2013-8-31,75.8,33.6,64.0,67.0,-22.3,-99.9,97,38,70,26.44,26.38,11,-528,15,0.00